Location: *
(46.4000°N, 12.6667°E)
Time: 05:02:11
(UTC+00:00)

Envisat - Pass Details

Date: 06 December 2021
Orbit: 764 x 766 km, 98.2° (Epoch: 16 January)

Event Time Altitude Azimuth Distance (km) Brightness Sun altitude
Rises 02:38:23 0° 33° (NNE) 3,242 6.7 -40.3°
Reaches altitude 10° 02:42:26 10° 65° (ENE) 2,308 6.1 -39.6°
Maximum altitude 02:44:13 12° 86° (E) 2,184 6.0 -39.3°
Drops below altitude 10° 02:46:00 10° 107° (ESE) 2,301 6.1 -39.0°
Sets 02:50:00 0° 139° (SE) 3,220 6.6 -38.3°
